| time (UTC) | temp F | wind direction | speed knots | gust knots | rain 1hr in | rain 24hr in | rain mn in | humidity % | barometer mb |
| 20260505214603 | 66 | 337 | 8.7 | 14.8 | 0.00 | 0.00 | 0.00 | 35 | 1010.4 |
| 20260505214040 | 66 | 259 | 6.1 | 13.9 | 0.00 | 0.00 | 0.00 | 35 | 1010.4 |
| 20260505213543 | 66 | 226 | 7.8 | 13.9 | 0.00 | 0.00 | 0.00 | 35 | 1010.6 |
| 20260505213042 | 65 | 227 | 4.3 | 13.0 | 0.00 | 0.00 | 0.00 | 35 | 1010.7 |
| 20260505212541 | 65 | 229 | 4.3 | 12.2 | 0.00 | 0.00 | 0.00 | 36 | 1010.7 |
| 20260505212043 | 64 | 267 | 3.5 | 12.2 | 0.00 | 0.00 | 0.00 | 37 | 1010.8 |
| 20260505211549 | 63 | 261 | 7.0 | 14.8 | 0.00 | 0.00 | 0.00 | 38 | 1010.9 |
| 20260505211042 | 63 | 222 | 7.0 | 15.6 | 0.00 | 0.00 | 0.00 | 39 | 1011.0 |
| 20260505210542 | 62 | 265 | 7.8 | 15.6 | 0.00 | 0.00 | 0.00 | 39 | 1011.1 |
| 20260505210050 | 62 | 227 | 8.7 | 15.6 | 0.00 | 0.00 | 0.00 | 39 | 1011.3 |
| 20260505205542 | 62 | 234 | 6.1 | 13.9 | 0.00 | 0.00 | 0.00 | 39 | 1011.2 |
| 20260505205042 | 63 | 238 | 7.8 | 16.5 | 0.00 | 0.00 | 0.00 | 39 | 1011.4 |
| 20260505204549 | 62 | 204 | 8.7 | 16.5 | 0.00 | 0.00 | 0.00 | 40 | 1011.6 |
| 20260505204042 | 62 | 190 | 8.7 | 13.9 | 0.00 | 0.00 | 0.00 | 41 | 1011.6 |
| 20260505203541 | 61 | 232 | 7.0 | 13.0 | 0.00 | 0.00 | 0.00 | 41 | 1011.8 |
| 20260505203054 | 60 | 236 | 6.1 | 13.9 | 0.00 | 0.00 | 0.00 | 42 | 1011.8 |
| 20260505202541 | 60 | 213 | 6.1 | 13.9 | 0.00 | 0.00 | 0.00 | 42 | 1012.1 |
| 20260505202041 | 60 | 275 | 7.0 | 13.9 | 0.00 | 0.00 | 0.00 | 44 | 1012.0 |
| 20260505201554 | 60 | 248 | 6.1 | 13.9 | 0.00 | 0.00 | 0.00 | 44 | 1012.0 |
| 20260505201041 | 59 | 300 | 7.0 | 13.0 | 0.00 | 0.00 | 0.00 | 46 | 1011.9 |
| 20260505200542 | 57 | 298 | 4.3 | 11.3 | 0.00 | 0.00 | 0.00 | 48 | 1012.0 |
| 20260505200057 | 56 | 242 | 6.1 | 13.9 | 0.00 | 0.00 | 0.00 | 49 | 1012.1 |
| 20260505195541 | 55 | 254 | 7.8 | 16.5 | 0.00 | 0.00 | 0.00 | 52 | 1012.2 |
| 20260505195041 | 55 | 254 | 8.7 | 16.5 | 0.00 | 0.00 | 0.00 | 54 | 1012.1 |
| 20260505194549 | 55 | 267 | 7.0 | 15.6 | 0.00 | 0.00 | 0.00 | 52 | 1012.0 |
| 20260505194041 | 56 | 253 | 7.8 | 17.4 | 0.00 | 0.00 | 0.00 | 50 | 1012.0 |
| 20260505193541 | 56 | 257 | 7.0 | 17.4 | 0.00 | 0.00 | 0.00 | 48 | 1012.0 |
| 20260505193045 | 56 | 267 | 8.7 | 15.6 | 0.00 | 0.00 | 0.00 | 49 | 1011.9 |
| 20260505192541 | 55 | 255 | 7.8 | 12.2 | 0.00 | 0.00 | 0.00 | 52 | 1011.9 |
| 20260505192041 | 55 | 217 | 7.0 | 12.2 | 0.00 | 0.00 | 0.00 | 52 | 1012.0 |
| 20260505191550 | 55 | 273 | 7.0 | 12.2 | 0.00 | 0.00 | 0.00 | 54 | 1012.0 |
| 20260505191040 | 54 | 286 | 7.0 | 13.0 | 0.00 | 0.00 | 0.00 | 54 | 1012.0 |
| 20260505190541 | 55 | 270 | 7.8 | 17.4 | 0.00 | 0.00 | 0.00 | 57 | 1012.1 |
| 20260505190048 | 55 | 285 | 6.1 | 18.2 | 0.00 | 0.00 | 0.00 | 57 | 1012.1 |
| 20260505185541 | 57 | 255 | 8.7 | 18.2 | 0.00 | 0.00 | 0.00 | 51 | 1012.1 |
| 20260505185041 | 58 | 200 | 7.8 | 15.6 | 0.00 | 0.00 | 0.00 | 45 | 1012.0 |
| 20260505184548 | 59 | 217 | 6.1 | 13.9 | 0.00 | 0.00 | 0.00 | 39 | 1011.7 |
| 20260505184042 | 60 | 238 | 7.0 | 16.5 | 0.00 | 0.00 | 0.00 | 38 | 1011.7 |
| 20260505183540 | 60 | 164 | 7.8 | 16.5 | 0.00 | 0.00 | 0.00 | 37 | 1011.7 |
| 20260505183104 | 60 | 251 | 5.2 | 12.2 | 0.00 | 0.00 | 0.00 | 36 | 1011.7 |
| 20260505182541 | 61 | 198 | 6.1 | 12.2 | 0.00 | 0.00 | 0.00 | 35 | 1011.8 |
| 20260505182043 | 61 | 170 | 4.3 | 10.4 | 0.00 | 0.00 | 0.00 | 34 | 1011.7 |
| 20260505181550 | 62 | 158 | 6.1 | 12.2 | 0.00 | 0.00 | 0.00 | 33 | 1011.7 |
| 20260505181046 | 62 | 190 | 4.3 | 12.2 | 0.00 | 0.00 | 0.00 | 33 | 1011.6 |
| 20260505180543 | 62 | 159 | 7.0 | 10.4 | 0.00 | 0.00 | 0.00 | 32 | 1011.7 |
| 20260505180052 | 62 | 194 | 3.5 | 7.8 | 0.00 | 0.00 | 0.00 | 32 | 1011.6 |
| 20260505175543 | 62 | 173 | 3.5 | 7.8 | 0.00 | 0.00 | 0.00 | 33 | 1011.7 |
| 20260505175043 | 62 | 0 | 3.5 | 8.7 | 0.00 | 0.00 | 0.00 | 34 | 1011.7 |
| 20260505174559 | 61 | 197 | 4.3 | 8.7 | 0.00 | 0.00 | 0.00 | 34 | 1011.8 |
| 20260505174044 | 61 | 190 | 1.7 | 8.7 | 0.00 | 0.00 | 0.00 | 34 | 1012.1 |
| 20260505173543 | 61 | 254 | 3.5 | 8.7 | 0.00 | 0.00 | 0.00 | 33 | 1012.2 |
| 20260505173054 | 61 | 226 | 4.3 | 7.8 | 0.00 | 0.00 | 0.00 | 34 | 1012.1 |
| 20260505172544 | 61 | 290 | 2.6 | 7.0 | 0.00 | 0.00 | 0.00 | 34 | 1012.0 |
| 20260505172046 | 60 | 254 | 3.5 | 7.0 | 0.00 | 0.00 | 0.00 | 34 | 1012.0 |
| 20260505171554 | 60 | 294 | 0.9 | 9.6 | 0.00 | 0.00 | 0.00 | 35 | 1012.2 |
| 20260505171044 | 59 | 221 | 4.3 | 9.6 | 0.00 | 0.00 | 0.00 | 35 | 1012.3 |
| 20260505170544 | 58 | 180 | 2.6 | 9.6 | 0.00 | 0.00 | 0.00 | 37 | 1012.4 |
| 20260505170049 | 57 | 157 | 4.3 | 9.6 | 0.00 | 0.00 | 0.00 | 38 | 1012.4 |
| 20260505165543 | 56 | 270 | 3.5 | 6.1 | 0.00 | 0.00 | 0.00 | 39 | 1012.5 |
| 20260505165044 | 55 | 199 | 1.7 | 8.7 | 0.00 | 0.00 | 0.00 | 40 | 1012.6 |
| 20260505164601 | 55 | 194 | 2.6 | 8.7 | 0.00 | 0.00 | 0.00 | 40 | 1012.7 |
| 20260505164043 | 54 | 238 | 4.3 | 9.6 | 0.00 | 0.00 | 0.00 | 41 | 1012.9 |
| 20260505163545 | 54 | 173 | 6.1 | 10.4 | 0.00 | 0.00 | 0.00 | 41 | 1012.8 |
| 20260505163049 | 54 | 221 | 5.2 | 10.4 | 0.00 | 0.00 | 0.00 | 42 | 1012.9 |
| 20260505162543 | 53 | 194 | 4.3 | 9.6 | 0.00 | 0.00 | 0.00 | 42 | 1012.9 |
| 20260505162043 | 53 | 222 | 5.2 | 9.6 | 0.00 | 0.00 | 0.00 | 43 | 1013.0 |
| 20260505161602 | 53 | 240 | 5.2 | 11.3 | 0.00 | 0.00 | 0.00 | 44 | 1012.9 |
| 20260505161043 | 53 | 210 | 4.3 | 11.3 | 0.00 | 0.00 | 0.00 | 44 | 1013.0 |
| 20260505160543 | 52 | 223 | 4.3 | 9.6 | 0.00 | 0.00 | 0.00 | 44 | 1013.1 |
| 20260505153108 | 53 | 284 | 4.3 | 10.4 | 0.00 | 0.00 | 0.00 | 44 | 1013.1 |
| 20260505152544 | 53 | 261 | 5.2 | 12.2 | 0.00 | 0.00 | 0.00 | 44 | 1013.2 |
| 20260505152042 | 53 | 267 | 6.1 | 12.2 | 0.00 | 0.00 | 0.00 | 44 | 1013.1 |
| 20260505151611 | 53 | 317 | 4.3 | 11.3 | 0.00 | 0.00 | 0.00 | 44 | 1013.1 |
| 20260505151043 | 53 | 278 | 5.2 | 9.6 | 0.00 | 0.00 | 0.00 | 45 | 1013.0 |
| 20260505150543 | 53 | 294 | 4.3 | 9.6 | 0.00 | 0.00 | 0.00 | 45 | 1013.0 |
| 20260505140542 | 52 | 288 | 4.3 | 13.0 | 0.00 | 0.00 | 0.00 | 46 | 1013.1 |
| 20260505140108 | 52 | 269 | 5.2 | 13.0 | 0.00 | 0.00 | 0.00 | 46 | 1013.1 |
| 20260505124550 | 50 | 281 | 3.5 | 12.2 | 0.00 | 0.00 | 0.00 | 48 | 1013.3 |
| 20260505124042 | 49 | 296 | 4.3 | 12.2 | 0.00 | 0.00 | 0.00 | 49 | 1013.3 |
| 20260505123542 | 49 | 297 | 7.0 | 13.0 | 0.00 | 0.00 | 0.00 | 49 | 1013.3 |
| 20260505123058 | 49 | 276 | 5.2 | 13.0 | 0.00 | 0.00 | 0.00 | 48 | 1013.1 |
| 20260505122542 | 48 | 275 | 6.1 | 13.0 | 0.00 | 0.00 | 0.00 | 46 | 1013.1 |
| 20260505122042 | 48 | 283 | 2.6 | 6.1 | 0.00 | 0.00 | 0.00 | 44 | 1013.1 |
| 20260505121543 | 48 | 307 | 2.6 | 6.1 | 0.00 | 0.00 | 0.00 | 44 | 1012.8 |
| 20260505121042 | 49 | 302 | 1.7 | 3.5 | 0.00 | 0.00 | 0.00 | 43 | 1012.9 |
| 20260505120542 | 49 | 317 | 0.9 | 4.3 | 0.00 | 0.00 | 0.00 | 43 | 1012.9 |
| 20260505120054 | 49 | 317 | 1.7 | 4.3 | 0.00 | 0.00 | 0.00 | 42 | 1012.8 |
| 20260505115542 | 49 | 297 | 0.0 | 2.6 | 0.00 | 0.00 | 0.00 | 42 | 1012.6 |
| 20260505115043 | 49 | 297 | 0.0 | 1.7 | 0.00 | 0.00 | 0.00 | 41 | 1012.7 |
| 20260505114559 | 49 | 0 | 0.0 | 4.3 | 0.00 | 0.00 | 0.00 | 42 | 1012.7 |
| 20260505114043 | 50 | 297 | 0.9 | 5.2 | 0.00 | 0.00 | 0.00 | 42 | 1012.8 |
| 20260505113546 | 50 | 304 | 1.7 | 7.8 | 0.00 | 0.00 | 0.00 | 41 | 1013.0 |
| 20260505113111 | 50 | 280 | 1.7 | 7.8 | 0.00 | 0.00 | 0.00 | 41 | 1013.0 |
| 20260505112542 | 50 | 292 | 3.5 | 7.8 | 0.00 | 0.00 | 0.00 | 41 | 1013.0 |
| 20260505112042 | 50 | 284 | 4.3 | 7.8 | 0.00 | 0.00 | 0.00 | 42 | 1012.8 |
| 20260505111551 | 50 | 294 | 3.5 | 7.8 | 0.00 | 0.00 | 0.00 | 42 | 1012.7 |
| 20260505111042 | 50 | 273 | 2.6 | 7.0 | 0.00 | 0.00 | 0.00 | 41 | 1012.8 |
| 20260505110542 | 50 | 274 | 2.6 | 7.0 | 0.00 | 0.00 | 0.00 | 41 | 1012.8 |
| 20260505102042 | 51 | 277 | 1.7 | 4.3 | 0.00 | 0.00 | 0.00 | 39 | 1012.8 |
| 20260505101555 | 51 | 245 | 1.7 | 5.2 | 0.00 | 0.00 | 0.00 | 38 | 1012.7 |
| 20260505101042 | 51 | 259 | 1.7 | 5.2 | 0.00 | 0.00 | 0.00 | 38 | 1012.6 |
| 20260505100542 | 51 | 270 | 1.7 | 2.6 | 0.00 | 0.00 | 0.00 | 38 | 1012.5 |
| 20260505100047 | 52 | 298 | 0.9 | 5.2 | 0.00 | 0.00 | 0.00 | 38 | 1012.6 |
| 20260505095542 | 52 | 286 | 1.7 | 6.1 | 0.00 | 0.00 | 0.00 | 37 | 1012.5 |
| 20260505095046 | 52 | 294 | 1.7 | 9.6 | 0.00 | 0.00 | 0.00 | 37 | 1012.6 |
| 20260505094549 | 52 | 287 | 3.5 | 10.4 | 0.00 | 0.00 | 0.00 | 37 | 1012.6 |
| 20260505094042 | 52 | 277 | 5.2 | 11.3 | 0.00 | 0.00 | 0.00 | 37 | 1012.6 |
| 20260505093542 | 52 | 277 | 5.2 | 11.3 | 0.00 | 0.00 | 0.00 | 37 | 1012.7 |
| 20260505093058 | 52 | 270 | 7.0 | 11.3 | 0.00 | 0.00 | 0.00 | 37 | 1012.7 |
| 20260505092542 | 52 | 284 | 4.3 | 10.4 | 0.00 | 0.00 | 0.00 | 38 | 1012.7 |
| 20260505092042 | 52 | 275 | 2.6 | 6.1 | 0.00 | 0.00 | 0.00 | 38 | 1012.7 |
| 20260505091600 | 52 | 296 | 2.6 | 7.0 | 0.00 | 0.00 | 0.00 | 38 | 1012.7 |
| 20260505091043 | 52 | 287 | 2.6 | 8.7 | 0.00 | 0.00 | 0.00 | 38 | 1012.8 |
| 20260505090541 | 52 | 284 | 3.5 | 9.6 | 0.00 | 0.00 | 0.00 | 38 | 1012.8 |
| 20260505090048 | 52 | 286 | 3.5 | 9.6 | 0.00 | 0.00 | 0.00 | 38 | 1012.8 |
| 20260505085543 | 52 | 288 | 5.2 | 10.4 | 0.00 | 0.00 | 0.00 | 37 | 1012.7 |
| 20260505085042 | 52 | 298 | 5.2 | 10.4 | 0.00 | 0.00 | 0.00 | 37 | 1012.8 |
| 20260505084554 | 52 | 302 | 4.3 | 8.7 | 0.00 | 0.00 | 0.00 | 36 | 1012.9 |
| 20260505084043 | 53 | 318 | 2.6 | 7.0 | 0.00 | 0.00 | 0.00 | 36 | 1013.0 |
| 20260505083542 | 53 | 306 | 2.6 | 7.0 | 0.00 | 0.00 | 0.00 | 35 | 1013.1 |
| 20260505083100 | 53 | 296 | 0.9 | 2.6 | 0.00 | 0.00 | 0.00 | 35 | 1013.1 |
| 20260505082542 | 53 | 272 | 0.9 | 2.6 | 0.00 | 0.00 | 0.00 | 35 | 1013.3 |
| 20260505082043 | 53 | 272 | 0.9 | 6.1 | 0.00 | 0.00 | 0.00 | 35 | 1013.5 |
| 20260505081546 | 53 | 272 | 0.9 | 6.1 | 0.00 | 0.00 | 0.00 | 34 | 1013.6 |
| 20260505081046 | 54 | 262 | 2.6 | 6.1 | 0.00 | 0.00 | 0.00 | 34 | 1013.7 |
| 20260505080542 | 54 | 281 | 0.9 | 3.5 | 0.00 | 0.00 | 0.00 | 33 | 1013.6 |
| 20260505080056 | 54 | 281 | 0.9 | 4.3 | 0.00 | 0.00 | 0.00 | 33 | 1013.6 |
| 20260505075542 | 54 | 281 | 1.7 | 7.0 | 0.00 | 0.00 | 0.00 | 33 | 1013.5 |
| 20260505075043 | 55 | 311 | 2.6 | 7.0 | 0.00 | 0.00 | 0.00 | 33 | 1013.5 |
| 20260505074548 | 55 | 302 | 3.5 | 7.0 | 0.00 | 0.00 | 0.00 | 32 | 1013.6 |
| 20260505074043 | 55 | 313 | 2.6 | 4.3 | 0.00 | 0.00 | 0.00 | 32 | 1013.6 |
| 20260505073543 | 55 | 297 | 1.7 | 5.2 | 0.00 | 0.00 | 0.00 | 32 | 1013.6 |
| 20260505073106 | 56 | 319 | 2.6 | 7.8 | 0.00 | 0.00 | 0.00 | 31 | 1013.3 |
| 20260505072543 | 56 | 306 | 3.5 | 10.4 | 0.00 | 0.00 | 0.00 | 31 | 1013.2 |
| 20260505072043 | 56 | 328 | 5.2 | 10.4 | 0.00 | 0.00 | 0.00 | 31 | 1013.0 |
| 20260505071600 | 56 | 322 | 2.6 | 9.6 | 0.00 | 0.00 | 0.00 | 31 | 1013.1 |
| 20260505071045 | 56 | 301 | 4.3 | 11.3 | 0.00 | 0.00 | 0.00 | 30 | 1013.0 |
| 20260505070545 | 56 | 298 | 5.2 | 11.3 | 0.00 | 0.00 | 0.00 | 30 | 1013.0 |
| 20260505070100 | 57 | 309 | 6.1 | 15.6 | 0.00 | 0.00 | 0.00 | 30 | 1013.1 |
| 20260505065544 | 57 | 313 | 7.0 | 15.6 | 0.00 | 0.00 | 0.00 | 30 | 1013.2 |
| 20260505065042 | 57 | 309 | 7.0 | 13.9 | 0.00 | 0.00 | 0.00 | 30 | 1013.3 |
| 20260505064551 | 57 | 317 | 7.0 | 13.9 | 0.00 | 0.00 | 0.00 | 30 | 1013.1 |
| 20260505064047 | 57 | 295 | 6.1 | 13.0 | 0.00 | 0.00 | 0.00 | 30 | 1013.0 |
| 20260505063543 | 57 | 290 | 7.0 | 13.0 | 0.00 | 0.00 | 0.00 | 30 | 1013.0 |
| 20260505063054 | 57 | 314 | 4.3 | 9.6 | 0.00 | 0.00 | 0.00 | 31 | 1013.0 |
| 20260505062542 | 57 | 290 | 5.2 | 11.3 | 0.00 | 0.00 | 0.00 | 31 | 1013.0 |
| 20260505062043 | 57 | 264 | 5.2 | 11.3 | 0.00 | 0.00 | 0.00 | 31 | 1013.0 |
| 20260505061601 | 57 | 286 | 5.2 | 11.3 | 0.00 | 0.00 | 0.00 | 31 | 1013.0 |
| 20260505061043 | 57 | 273 | 4.3 | 9.6 | 0.00 | 0.00 | 0.00 | 31 | 1012.8 |
| 20260505060543 | 57 | 287 | 1.7 | 9.6 | 0.00 | 0.00 | 0.00 | 31 | 1012.9 |
| 20260505060055 | 58 | 284 | 3.5 | 9.6 | 0.00 | 0.00 | 0.00 | 31 | 1012.8 |
| 20260505055543 | 58 | 269 | 5.2 | 11.3 | 0.00 | 0.00 | 0.00 | 31 | 1013.0 |
| 20260505055043 | 58 | 281 | 4.3 | 11.3 | 0.00 | 0.00 | 0.00 | 31 | 1013.0 |
| 20260505054555 | 58 | 259 | 6.1 | 13.0 | 0.00 | 0.00 | 0.00 | 31 | 1012.9 |
| 20260505054042 | 58 | 257 | 6.1 | 13.0 | 0.00 | 0.00 | 0.00 | 31 | 1012.7 |
| 20260505053542 | 58 | 276 | 7.0 | 11.3 | 0.00 | 0.00 | 0.00 | 31 | 1012.7 |
| 20260505053058 | 58 | 273 | 4.3 | 13.0 | 0.00 | 0.00 | 0.00 | 31 | 1012.7 |
| 20260505052543 | 58 | 263 | 7.0 | 13.0 | 0.00 | 0.00 | 0.00 | 31 | 1012.7 |
| 20260505052043 | 58 | 258 | 4.3 | 7.8 | 0.00 | 0.00 | 0.00 | 32 | 1012.8 |
| 20260505051602 | 58 | 263 | 2.6 | 7.8 | 0.00 | 0.00 | 0.00 | 32 | 1012.7 |
| 20260505051045 | 58 | 280 | 2.6 | 8.7 | 0.00 | 0.00 | 0.00 | 32 | 1012.6 |
| 20260505050542 | 58 | 259 | 4.3 | 8.7 | 0.00 | 0.00 | 0.00 | 32 | 1012.7 |
| 20260505050103 | 58 | 271 | 2.6 | 8.7 | 0.00 | 0.00 | 0.00 | 32 | 1012.8 |
| 20260505041547 | 59 | 0 | 0.0 | 2.6 | 0.00 | 0.00 | 0.00 | 30 | 1012.9 |
| 20260505041043 | 59 | 0 | 0.0 | 3.5 | 0.00 | 0.00 | 0.00 | 29 | 1013.0 |
| 20260505040543 | 59 | 342 | 1.7 | 3.5 | 0.00 | 0.00 | 0.00 | 29 | 1012.9 |
| 20260505040050 | 59 | 336 | 1.7 | 5.2 | 0.00 | 0.00 | 0.00 | 29 | 1013.0 |
| 20260505035543 | 59 | 331 | 1.7 | 7.0 | 0.00 | 0.00 | 0.00 | 29 | 1013.0 |
| 20260505035042 | 60 | 309 | 3.5 | 7.0 | 0.00 | 0.00 | 0.00 | 29 | 1013.0 |
| 20260505034552 | 60 | 313 | 3.5 | 7.0 | 0.00 | 0.00 | 0.00 | 29 | 1013.0 |
| 20260505034043 | 60 | 309 | 2.6 | 7.0 | 0.00 | 0.00 | 0.00 | 28 | 1013.0 |
| 20260505033544 | 60 | 306 | 2.6 | 7.8 | 0.00 | 0.00 | 0.00 | 28 | 1012.9 |
| 20260505033049 | 60 | 311 | 2.6 | 9.6 | 0.00 | 0.00 | 0.00 | 27 | 1012.9 |
| 20260505032543 | 60 | 316 | 4.3 | 9.6 | 0.00 | 0.00 | 0.00 | 27 | 1012.8 |
| 20260505032048 | 60 | 314 | 3.5 | 8.7 | 0.00 | 0.00 | 0.00 | 27 | 1012.8 |
| 20260505031553 | 61 | 286 | 2.6 | 8.7 | 0.00 | 0.00 | 0.00 | 26 | 1012.7 |
| 20260505031043 | 61 | 309 | 3.5 | 7.8 | 0.00 | 0.00 | 0.00 | 26 | 1012.5 |
| 20260505030544 | 61 | 293 | 3.5 | 8.7 | 0.00 | 0.00 | 0.00 | 25 | 1012.5 |
| 20260505030047 | 61 | 313 | 4.3 | 11.3 | 0.00 | 0.00 | 0.00 | 25 | 1012.4 |
| 20260505025543 | 61 | 293 | 7.0 | 11.3 | 0.00 | 0.00 | 0.00 | 25 | 1012.3 |
| 20260505025043 | 61 | 307 | 6.1 | 13.9 | 0.00 | 0.00 | 0.00 | 25 | 1012.3 |
| 20260505024627 | 61 | 304 | 7.0 | 13.9 | 0.00 | 0.00 | 0.00 | 25 | 1012.2 |
| 20260505024043 | 62 | 309 | 7.0 | 13.9 | 0.00 | 0.00 | 0.00 | 24 | 1012.2 |
| 20260505023543 | 62 | 285 | 5.2 | 13.0 | 0.00 | 0.00 | 0.00 | 24 | 1012.1 |
| 20260505023055 | 62 | 315 | 5.2 | 12.2 | 0.00 | 0.00 | 0.00 | 24 | 1012.1 |
| 20260505022544 | 62 | 288 | 6.1 | 13.9 | 0.00 | 0.00 | 0.00 | 23 | 1012.0 |
| 20260505022043 | 62 | 300 | 7.0 | 13.9 | 0.00 | 0.00 | 0.00 | 23 | 1012.0 |
| 20260505021549 | 62 | 282 | 6.1 | 12.2 | 0.00 | 0.00 | 0.00 | 23 | 1011.9 |
| 20260505021042 | 62 | 250 | 6.1 | 13.9 | 0.00 | 0.00 | 0.00 | 22 | 1012.0 |
| 20260505020542 | 63 | 307 | 7.0 | 13.9 | 0.00 | 0.00 | 0.00 | 22 | 1012.0 |
| 20260505020053 | 63 | 284 | 8.7 | 13.9 | 0.00 | 0.00 | 0.00 | 21 | 1012.0 |
| 20260505015543 | 63 | 313 | 6.1 | 13.9 | 0.00 | 0.00 | 0.00 | 21 | 1012.0 |
| 20260505015045 | 63 | 288 | 6.1 | 15.6 | 0.00 | 0.00 | 0.00 | 21 | 1012.0 |
| 20260505014553 | 63 | 286 | 7.0 | 16.5 | 0.00 | 0.00 | 0.00 | 21 | 1012.0 |
| 20260505014046 | 64 | 297 | 7.8 | 16.5 | 0.00 | 0.00 | 0.00 | 20 | 1012.0 |
| 20260505013544 | 64 | 286 | 9.6 | 15.6 | 0.00 | 0.00 | 0.00 | 20 | 1011.9 |
| 20260505013102 | 64 | 285 | 6.1 | 12.2 | 0.00 | 0.00 | 0.00 | 20 | 1011.7 |
| 20260505012546 | 64 | 306 | 4.3 | 13.9 | 0.00 | 0.00 | 0.00 | 20 | 1011.6 |
| 20260505012044 | 64 | 302 | 6.1 | 13.9 | 0.00 | 0.00 | 0.00 | 19 | 1011.6 |
| 20260505011601 | 65 | 310 | 7.0 | 13.0 | 0.00 | 0.00 | 0.00 | 19 | 1011.6 |
| 20260505011042 | 65 | 268 | 7.0 | 16.5 | 0.00 | 0.00 | 0.00 | 19 | 1011.6 |
| 20260505010542 | 65 | 260 | 7.0 | 16.5 | 0.00 | 0.00 | 0.00 | 19 | 1011.6 |
| 20260505010107 | 65 | 298 | 8.7 | 16.5 | 0.00 | 0.00 | 0.00 | 19 | 1011.6 |
| 20260505005543 | 65 | 272 | 7.8 | 17.4 | 0.00 | 0.00 | 0.00 | 19 | 1011.7 |
| 20260505005043 | 65 | 288 | 8.7 | 17.4 | 0.00 | 0.00 | 0.00 | 18 | 1011.8 |
| 20260505004552 | 66 | 279 | 10.4 | 17.4 | 0.00 | 0.00 | 0.00 | 18 | 1011.8 |
| 20260505004042 | 66 | 300 | 7.0 | 16.5 | 0.00 | 0.00 | 0.00 | 18 | 1011.8 |
| 20260505003546 | 66 | 293 | 9.6 | 16.5 | 0.00 | 0.00 | 0.00 | 18 | 1011.9 |
| 20260505003056 | 66 | 285 | 7.0 | 22.6 | 0.00 | 0.00 | 0.00 | 18 | 1011.9 |
| 20260505002543 | 66 | 268 | 7.8 | 22.6 | 0.00 | 0.00 | 0.00 | 18 | 1011.8 |
| 20260505002043 | 66 | 286 | 8.7 | 18.2 | 0.00 | 0.00 | 0.00 | 18 | 1011.8 |
| 20260505001550 | 66 | 322 | 9.6 | 16.5 | 0.00 | 0.00 | 0.00 | 18 | 1011.7 |
| 20260505001042 | 67 | 279 | 8.7 | 16.5 | 0.00 | 0.00 | 0.00 | 18 | 1011.7 |
| 20260505000543 | 67 | 262 | 6.1 | 17.4 | 0.00 | 0.00 | 0.00 | 18 | 1011.9 |
| 20260505000058 | 67 | 292 | 7.8 | 17.4 | 0.00 | 0.00 | 0.00 | 18 | 1012.0 |
| 20260504235543 | 67 | 266 | 7.8 | 15.6 | 0.00 | 0.00 | 0.00 | 18 | 1012.0 |
| 20260504235043 | 67 | 274 | 7.0 | 14.8 | 0.00 | 0.00 | 0.00 | 19 | 1012.0 |
| 20260504234549 | 67 | 293 | 7.0 | 16.5 | 0.00 | 0.00 | 0.00 | 19 | 1012.0 |
| 20260504234043 | 67 | 260 | 7.0 | 17.4 | 0.00 | 0.00 | 0.00 | 18 | 1012.0 |
| 20260504233543 | 67 | 289 | 9.6 | 17.4 | 0.00 | 0.00 | 0.00 | 19 | 1012.0 |
| 20260504233104 | 68 | 328 | 9.6 | 17.4 | 0.00 | 0.00 | 0.00 | 19 | 1012.0 |
| 20260504232542 | 68 | 270 | 7.0 | 18.2 | 0.00 | 0.00 | 0.00 | 19 | 1012.0 |
| 20260504232042 | 68 | 276 | 9.6 | 18.2 | 0.00 | 0.00 | 0.00 | 18 | 1012.0 |
| 20260504231550 | 69 | 331 | 7.8 | 15.6 | 0.00 | 0.00 | 0.00 | 18 | 1011.9 |
| 20260504231043 | 69 | 295 | 6.1 | 16.5 | 0.00 | 0.00 | 0.00 | 19 | 1012.0 |
| 20260504230546 | 69 | 276 | 7.8 | 17.4 | 0.00 | 0.00 | 0.00 | 19 | 1012.1 |
| 20260504230053 | 69 | 301 | 10.4 | 17.4 | 0.00 | 0.00 | 0.00 | 19 | 1012.2 |
| 20260504225543 | 68 | 276 | 5.2 | 16.5 | 0.00 | 0.00 | 0.00 | 19 | 1012.3 |
| 20260504225042 | 68 | 288 | 8.7 | 16.5 | 0.00 | 0.00 | 0.00 | 19 | 1012.2 |
| 20260504224549 | 68 | 274 | 7.8 | 18.2 | 0.00 | 0.00 | 0.00 | 19 | 1012.2 |
| 20260504224043 | 68 | 290 | 10.4 | 18.2 | 0.00 | 0.00 | 0.00 | 19 | 1012.4 |
| 20260504223543 | 68 | 286 | 7.8 | 16.5 | 0.00 | 0.00 | 0.00 | 19 | 1012.4 |
| 20260504223058 | 68 | 321 | 7.8 | 16.5 | 0.00 | 0.00 | 0.00 | 19 | 1012.3 |
| 20260504222543 | 68 | 259 | 9.6 | 16.5 | 0.00 | 0.00 | 0.00 | 18 | 1012.4 |
| 20260504222042 | 68 | 288 | 7.0 | 16.5 | 0.00 | 0.00 | 0.00 | 17 | 1012.6 |
| 20260504221552 | 69 | 269 | 7.8 | 18.2 | 0.00 | 0.00 | 0.00 | 17 | 1012.6 |
| 20260504221042 | 69 | 310 | 8.7 | 18.2 | 0.00 | 0.00 | 0.00 | 17 | 1012.8 |
| 20260504220542 | 69 | 271 | 5.2 | 17.4 | 0.00 | 0.00 | 0.00 | 17 | 1012.6 |
| 20260504220056 | 69 | 286 | 10.4 | 17.4 | 0.00 | 0.00 | 0.00 | 16 | 1012.8 |
| 20260504215543 | 70 | 265 | 8.7 | 15.6 | 0.00 | 0.00 | 0.00 | 16 | 1013.0 |
| 20260504215042 | 70 | 298 | 9.6 | 15.6 | 0.00 | 0.00 | 0.00 | 16 | 1013.0 |